Location: *
(51.1248°S, 108.4023°W)
Time: 02:18:10
(UTC+00:00)

N. Korean satellite - Pass Details

Date: 29 September 2021
Orbit: 450 x 494 km, 97.3° (Epoch: 27 October)

Event Time Altitude Azimuth Distance (km) Brightness Sun altitude
Rises 11:27:19 0° 16° (NNE) 2,591 10.2 -12.8°
Reaches altitude 10° 11:29:23 10° 16° (NNE) 1,713 9.3 -12.5°
Maximum altitude 11:33:05 86° 102° (ESE) 513 6.7 -11.9°
Drops below altitude 10° 11:36:49 10° 192° (SSW) 1,722 9.4 -11.4°
Sets 11:38:54 0° 192° (SSW) 2,606 10.4 -11.1°
